ATLAS 5 CENTAUR R/B, 40295

Orbit data source: Space-Track

ATLAS 5 CENTAUR R/B, 40295 is space debris in MEO originally from a launch on Wed, 29 Oct 2014 UTC launched from the Air Force Eastern Test Range (AFETR). Debris objects in space refer to the collection of defunct objects orbiting the Earth. Examples of debris include non-operational satellites, rocket bodies, and fragments generated from explosions, collisions, or faulty payload assembly.

Loading next visibility...
Identifier
40295, 2014-068B
Orbit
MEO
Country
Flag of USUS
Related business
Flag of USUnited Launch Alliance/Lockheed Martin (US)
Manufacturer
LMSS Denver
Mission
Spacecraft
Bus & Motor
CENTAUR SEC, RL10-4A-2
Mass
~2,020 kg wet, 2,020 kg dry
Launch date (UTC)
2014-10-29 (12 years ago)
Launch vehicle
Unknown
Launch site
Air Force Eastern Test Range (AFETR)
Object type
Payload
Rocket body
Debris
Shape & HBR
Cyl + 1 Nozzle, 5.8 m
Radar Cross Section
32.260 m², Large (>1 m²)

Expand to show TLE details & history
Last TLE update: 3 days ago

TLE from 3 days ago
0 ATLAS 5 CENTAUR R/B
1 40295U 14068B   26170.08428092 -.00000077  00000-0  00000-0 0  9993
2 40295  57.2643  46.8425 0119270 354.6492   5.2804  1.91825339 81550
Epoch: 2026-06-19T02:01Z
TLE epoch observation values (Epoch: 2026-06-19T02:01:21.871Z)
Latitude
0.00002°
Longitude
109.20185°
Altitude
20,658.444 km
Speed
3.862 km/s
True Right ascension
03h 07m 26s
True Declination
0° 00' 00"
Sunlit
Object was in daylight at epoch
Visualization orbit readout
Latitude
Unknown
Longitude
Unknown
Altitude
Unknown
Speed
Unknown
Apparent Right ascension
Unknown
Apparent Declination
Unknown
Sunlit
N/A
Visualization observer readout
Local Sidereal Time
21:38:28
Azimuth
Unknown
Elevation
Unknown
Doppler factor
Unknown
Orbital elements
Apogee altitude
21,309.065 km
Perigee altitude
20,656.399 km
Semi-major axis
27,360.869 km
Eccentricity
0.01193
Inclination
57.2643°
RAAN
46.8425°
Arg. of periapsis
354.6492°
True anomaly
5.40807°
Mean anomaly
5.2804°
Eccentric anomaly
5.34405°
Mean motion
0.47957 °/min
Orbital period
750.68 mins
BSTAR
0
Loading maneuver chart data...
Computing Atmospheric mass density...
Loading historical data...
Loading historical data...
Loading historical data...
Loading historical data...
Loading historical data...
Loading historical data...
Loading historical data...
Other satellites on launch #68 in the year 2014 (2014-10-29 UTC)

Documentation

Showing up to 5 results
|